{"data":{"norad_id":57821,"epoch":"2026-09-20T05:23:03.282720Z","epoch_age_seconds":158694,"freshness":"FRESH","line1":"1 57821U 23138P   26263.22434355 -.00000189  00000+0  26385-5 0  9994","line2":"2 57821  42.9990 216.0837 0000955 275.9352  84.1390 15.27573496168488","mean_motion":15.27573496,"eccentricity":9.55e-5,"inclination_deg":42.999,"raan_deg":216.0837,"arg_perigee_deg":275.9352,"mean_anomaly_deg":84.139,"bstar":2.6385e-6,"rev_number":16848,"period_min":94.267150076293,"perigee_km":482.41332629249,"apogee_km":483.72381655663,"semimajor_km":6861.2055714246,"source":"CELESTRAK","updated_at":"2026-09-21T09:00:33.709290Z"}}